Riverton, WY

7:16 PM MDT on June 26, 2017 (GMT -0600)
Riverton Regional

Weather History for KRIW - October, 2013

Change the Weather History Date:

Thursday, October 31, 2013

  Actual Average Record
Temperature  
Mean Temperature 34 °F 39 °F  
Max Temperature 49 °F 50 °F 69 °F (1999)
Min Temperature 19 °F 27 °F 6 °F (2002)
Degree Days  
Heating Degree Days 31 26  
Month to date heating degree days 759 615  
Since 1 July heating degree days 946 880  
Cooling Degree Days 0 0  
Month to date cooling degree days 0 0  
Year to date cooling degree days 798 494  
Moisture  
Dew Point 24 °F    
Average Humidity 75    
Maximum Humidity 100    
Minimum Humidity 49    
Precipitation  
Precipitation T in 0.01 in 0.10 in (2000)
Month to date precipitation 1.94 0.89  
Year to date precipitation 9.01 8.61  
Snow  
Snow 0.00 in - - ()
Month to date snowfall 17.5  
Since 1 July snowfall 24.8  
Since 1 September snowfall 24.8  
Snow Depth 3.00 in    
Sea Level Pressure  
Sea Level Pressure 29.90 in    
Wind  
Wind Speed 10 mph (NNW)    
Max Wind Speed 38 mph    
Max Gust Speed 49 mph    
Visibility 4 miles    
Events Fog    
T = Trace of Precipitation, MM = Missing Value Source: NWS Daily Summary

Daily Weather History Graph

Daily Weather History Graph

Search for Another Location

Airport or City:

Trip Planner

Search our weather history database for the weather conditions in past years. The results will help you decide how hot, cold, wet, or windy it might be!

Date:

Astronomy

Oct. 31, 2013 Rise Set
Actual Time 7:47 AM MDT 6:06 PM MDT
Civil Twilight 7:18 AM MDT 6:36 PM MDT
Nautical Twilight 6:44 AM MDT 7:09 PM MDT
Astronomical Twilight 6:11 AM MDT 7:42 PM MDT
Moon 4:35 AM MDT (10/31) 4:30 PM MDT (10/31)
Length of Visible Light 11h 18m
Length of Day
10h 19m
Waning Crescent, 9% of the Moon is Illuminated
Oct 31
Waning Crescent
Nov 3
New
Nov 9
First Quarter
Nov 17
Full
Nov 25
Last Quarter

Hourly Weather History & Observations

Time (MDT) Temp. Windchill Dew Point Humidity Pressure Visibility Wind Dir Wind Speed Gust Speed Precip Events Conditions
12:02 AM 19.4 °F - 15.8 °F 86% 29.86 in 1.0 mi Calm Calm - N/A   Mist
12:09 AM 17.6 °F - 15.8 °F 93% 29.86 in 1.5 mi Calm Calm - N/A   Scattered Clouds
12:19 AM 17.6 °F 10.7 °F 15.8 °F 93% 29.86 in 3.0 mi North 4.6 mph - N/A   Clear
12:31 AM 17.6 °F 9.3 °F 15.8 °F 93% 29.86 in 2.0 mi NNW 5.8 mph - N/A   Clear
12:39 AM 17.6 °F 6.4 °F 15.8 °F 93% 29.86 in 10.0 mi NNW 9.2 mph - N/A   Partly Cloudy
12:53 AM 19.0 °F 9.0 °F 16.0 °F 88% 29.99 in 5.0 mi NNW 8.1 mph - N/A   Mostly Cloudy
12:58 AM 19.4 °F 10.4 °F 17.6 °F 93% 29.86 in 1.5 mi NW 6.9 mph - N/A   Mostly Cloudy
1:01 AM 21.2 °F 11.7 °F 19.4 °F 93% 29.86 in 0.8 mi NNW 8.1 mph - N/A   Mist
1:11 AM 24.8 °F 15.3 °F 21.2 °F 86% 29.86 in 0.2 mi NNW 9.2 mph - N/A Fog Light Freezing Fog
1:50 AM 26.6 °F 22.6 °F 24.8 °F 93% 29.87 in 0.2 mi North 3.5 mph - N/A Fog Light Freezing Fog
1:53 AM 26.1 °F - 24.1 °F 92% 29.96 in 0.2 mi Calm Calm - N/A Fog Light Freezing Fog
2:24 AM 26.6 °F 21.2 °F 24.8 °F 93% 29.87 in 0.2 mi North 4.6 mph - N/A Fog Light Freezing Fog
2:53 AM 24.1 °F - 21.0 °F 88% 29.97 in 0.5 mi Calm Calm - N/A Fog Light Freezing Fog
3:20 AM 23.0 °F 13.9 °F 19.4 °F 86% 29.87 in 2.0 mi WSW 8.1 mph - N/A   Mostly Cloudy
3:22 AM 24.8 °F 16.1 °F 21.2 °F 86% 29.87 in 6.0 mi WSW 8.1 mph - N/A   Scattered Clouds
3:53 AM 24.1 °F 16.0 °F 21.0 °F 88% 29.95 in 10.0 mi WSW 6.9 mph - N/A   Clear
4:53 AM 21.9 °F 11.7 °F 19.0 °F 89% 29.95 in 10.0 mi WSW 9.2 mph - N/A   Clear
5:53 AM 21.9 °F 12.5 °F 18.0 °F 85% 29.98 in 10.0 mi WNW 8.1 mph - N/A   Clear
6:19 AM 21.2 °F 11.7 °F 19.4 °F 93% 29.87 in 7.0 mi NW 8.1 mph - N/A   Partly Cloudy
6:28 AM 21.2 °F 11.7 °F 19.4 °F 93% 29.87 in 1.8 mi NW 8.1 mph - N/A   Scattered Clouds
6:36 AM 21.2 °F 10.9 °F 19.4 °F 93% 29.87 in 3.0 mi NW 9.2 mph - N/A   Scattered Clouds
6:53 AM 19.9 °F 12.1 °F 19.0 °F 96% 29.99 in 1.2 mi NNW 5.8 mph - N/A   Mostly Cloudy
7:01 AM 19.4 °F 11.5 °F 19.4 °F 100% 29.87 in 0.2 mi NW 5.8 mph - N/A Fog Light Freezing Fog
7:13 AM 19.4 °F - 17.6 °F 93% 29.87 in 1.0 mi Calm Calm - N/A   Mist
7:30 AM 19.4 °F 12.8 °F 17.6 °F 93% 29.87 in 2.0 mi NNW 4.6 mph - N/A   Scattered Clouds
7:38 AM 19.4 °F 12.8 °F 17.6 °F 93% 29.87 in 3.0 mi NNW 4.6 mph - N/A   Scattered Clouds
7:40 AM 19.4 °F 11.5 °F 17.6 °F 93% 29.87 in 1.5 mi NNW 5.8 mph - N/A   Scattered Clouds
7:42 AM 19.4 °F 12.8 °F 17.6 °F 93% 29.87 in 0.8 mi North 4.6 mph - N/A   Mist
7:53 AM 19.0 °F 11.1 °F 17.1 °F 92% 30.00 in 0.2 mi North 5.8 mph - N/A Fog Light Freezing Fog
8:11 AM 19.4 °F - 17.6 °F 93% 29.88 in 0.5 mi Calm Calm - N/A Fog Light Freezing Fog
8:40 AM 19.4 °F - 19.4 °F 100% 29.90 in 1.5 mi Calm Calm - N/A   Scattered Clouds
8:42 AM 21.2 °F - 19.4 °F 93% 29.90 in 3.0 mi Calm Calm - N/A   Scattered Clouds
8:53 AM 21.9 °F - 19.0 °F 89% 30.01 in 10.0 mi Calm Calm - N/A   Partly Cloudy
9:53 AM 28.0 °F 22.8 °F 24.1 °F 85% 29.99 in 10.0 mi South 4.6 mph - N/A   Clear
10:20 AM 26.6 °F - 26.6 °F 100% 29.89 in 0.8 mi Calm Calm - N/A   Mist
10:32 AM 28.4 °F - 26.6 °F 93% 29.90 in 1.5 mi Calm Calm - N/A   Partly Cloudy
10:37 AM 30.2 °F - 26.6 °F 86% 29.90 in 4.0 mi Calm Calm - N/A   Partly Cloudy
10:53 AM 32.0 °F - 28.0 °F 85% 29.96 in 10.0 mi Calm Calm - N/A   Clear
11:18 AM 30.2 °F - 28.4 °F 93% 29.90 in 10.0 mi Calm Calm - N/A   Partly Cloudy
11:42 AM 32.0 °F 28.7 °F 30.2 °F 93% 29.89 in 1.0 mi ESE 3.5 mph - 0.00 in   Mist
11:49 AM 32.0 °F 28.7 °F 30.2 °F 93% 29.89 in 0.5 mi East 3.5 mph - 0.00 in Fog Fog
11:53 AM 30.9 °F - 28.9 °F 92% 29.99 in 0.2 mi Calm Calm - 0.00 in Fog Light Freezing Fog
12:53 PM 36.0 °F - 32.0 °F 86% 29.95 in 0.8 mi Calm Calm - 0.00 in   Mist
12:55 PM 37.4 °F - 32.0 °F 81% 29.87 in 2.0 mi Calm Calm - N/A   Haze
1:00 PM 37.4 °F - 33.8 °F 87% 29.86 in 4.0 mi Calm Calm - N/A   Scattered Clouds
1:02 PM 35.6 °F 32.8 °F 33.8 °F 93% 29.86 in 1.0 mi SE 3.5 mph - N/A   Mist
1:04 PM 35.6 °F 31.7 °F 33.8 °F 93% 29.86 in 0.2 mi ESE 4.6 mph - N/A Fog Fog
1:19 PM 37.4 °F - 33.8 °F 87% 29.85 in 1.0 mi Calm Calm - N/A   Mist
1:21 PM 37.4 °F - 33.8 °F 87% 29.85 in 4.0 mi Calm Calm - N/A   Scattered Clouds
1:29 PM 37.4 °F 33.8 °F 33.8 °F 87% 29.84 in 1.5 mi East 4.6 mph - N/A   Scattered Clouds
1:44 PM 35.6 °F 32.8 °F 32.0 °F 87% 29.83 in 8.0 mi ESE 3.5 mph - N/A   Partly Cloudy
1:53 PM 37.0 °F 34.5 °F 33.1 °F 86% 29.88 in 10.0 mi East 3.5 mph - N/A   Partly Cloudy
2:53 PM 43.0 °F - 36.0 °F 76% 29.86 in 10.0 mi Calm Calm - N/A   Clear
3:53 PM 44.1 °F 37.4 °F 30.9 °F 60% 29.85 in 10.0 mi NNW 13.8 mph - 0.00 in   Partly Cloudy
4:53 PM 46.0 °F 36.2 °F 28.9 °F 51% 29.86 in 10.0 mi WNW 33.4 mph 42.6 mph N/A   Clear
5:53 PM 43.0 °F 32.7 °F 27.0 °F 53% 29.86 in 10.0 mi WNW 28.8 mph 35.7 mph N/A   Clear
6:53 PM 42.1 °F 31.7 °F 26.1 °F 53% 29.90 in 10.0 mi WNW 27.6 mph 42.6 mph N/A   Clear
7:53 PM 42.1 °F 33.1 °F 27.0 °F 55% 29.93 in 10.0 mi NW 20.7 mph 32.2 mph N/A   Clear
8:53 PM 41.0 °F 31.6 °F 28.0 °F 60% 29.96 in 10.0 mi NW 20.7 mph - N/A   Clear
9:53 PM 39.9 °F 31.8 °F 28.0 °F 63% 29.97 in 10.0 mi NNW 15.0 mph 25.3 mph N/A   Mostly Cloudy
10:53 PM 39.9 °F 32.5 °F 28.0 °F 63% 29.97 in 10.0 mi NNW 12.7 mph - N/A   Partly Cloudy
11:53 PM 39.9 °F 32.1 °F 28.0 °F 63% 29.98 in 10.0 mi NNW 13.8 mph - N/A   Mostly Cloudy